[[{"header":{"parameterUnit":"m.s-1","parameterCategory":1,"la1":30.2991,"la2":30.254,"lo1":-89.0895,"lo2":-89.0444,"dy":0.0017,"dx":0.0017,"nx":28,"ny":28,"refTime":"2024-08-12T03:00:00:Z","depth":0,"parameterNumber":2,"parameterNumberName":"U-component_of_WINDS"},"data":[0,0,0,0,0,0,0,0,0,0,0,0,0,0,0,0,0,0,0,0,0,0,0,0,0,0,0,0,0,0,0,0,0,0,0,0,0,0,0,0,0,0,0,0,0,0,0,0,0,0,0,0,0,0,0,0,0,0,1.2022,1.2022,0,1.2108,1.2109,1.211,1.2107,1.2106,1.2105,1.2104,1.2196,1.22,1.2203,0,0,0,0,0,0,0,0,0,0,0,0,0,1.1855,1.1858,1.2021,1.2023,1.2024,1.2108,1.211,1.2111,1.2108,1.2106,1.2105,1.2103,1.2195,1.2199,1.2204,0,0,0,0,0,0,0,0,0,0,0,0,0,1.1933,1.1859,1.2021,1.2032,1.2034,1.2108,1.211,1.2111,1.2108,1.2106,1.2104,1.2103,1.2194,1.2199,1.2204,1.2274,0,0,1.2221,1.2223,0,0,0,0,0,0,0,0,1.1929,1.1939,1.203,1.2032,1.2034,1.2095,1.2085,1.2166,1.2108,1.208,1.2104,1.2102,1.2164,1.2172,1.2192,1.2278,1.2282,1.2221,1.2225,1.2227,1.2228,0,0,0,0,0,0,0,1.1923,1.1935,1.2056,1.2031,1.2033,1.2033,1.2043,1.21,1.2132,1.2082,1.2082,1.2092,1.2165,1.2187,1.2195,1.2284,1.2221,1.2226,1.2229,1.2231,1.243,1.2432,0,0,0,0,0,0,1.1915,1.1931,1.2053,1.2059,1.1975,1.2038,1.2048,1.2077,1.2131,1.2137,1.2094,1.2092,1.2179,1.2188,1.2198,1.2282,1.2227,1.2232,1.2235,1.2428,1.243,1.2432,0,0,0,0,0,0,1.1911,1.1926,1.205,1.1995,1.201,1.2043,1.2076,1.208,1.2102,1.214,1.2145,1.2111,1.2178,1.219,1.2255,1.2285,1.2234,1.2239,1.2425,1.2429,1.2431,1.245,0,0,0,0,0,0,1.1907,1.1925,1.1951,1.1995,1.2013,1.2104,1.2078,1.2083,1.2111,1.2109,1.2157,1.2163,1.2177,1.2246,1.226,1.2291,1.2243,1.2423,1.2427,1.243,1.2447,1.2454,1.2459,0,0,0,0,0,1.1901,1.1954,1.1952,1.1967,1.2047,1.2106,1.2116,1.2131,1.2113,1.214,1.2164,1.2161,1.228,1.2253,1.2268,1.2302,1.2421,1.2426,1.243,1.2445,1.2453,1.2459,0,0,0,0,0,0,1.1914,1.196,1.1959,1.2028,1.2063,1.2105,1.214,1.2139,1.2181,1.2178,1.2195,1.2206,1.227,1.2293,1.2262,1.2371,1.2348,1.2356,1.2354,1.2362,1.2368,1.236,1.2248,0,0,0,0,0,1.1924,1.1968,1.2006,1.2064,1.2081,1.2107,1.2134,1.2142,1.2179,1.2194,1.2223,1.226,1.2306,1.2335,1.2379,1.2451,1.2461,1.2481,1.2487,1.2492,1.2498,1.2536,1.2546,1.2447,1.2447,1.2447,0,0,1.1947,1.1978,1.2005,1.2067,1.2095,1.214,1.212,1.2169,1.2202,1.2202,1.2264,1.2286,1.2329,1.2396,1.2428,1.2417,1.2528,1.2498,1.2502,1.2505,1.2542,1.2551,1.256,1.2451,1.245,1.245,0,0,1.2012,1.204,1.2089,1.2118,1.216,1.2177,1.2189,1.2231,1.2246,1.2308,1.2308,1.2349,1.2427,1.2457,1.2482,1.2557,1.2555,1.2571,1.2602,1.2639,1.2647,1.2654,1.2679,1.2688,1.2577,1.2577,1.2577,0,1.2035,1.2101,1.2116,1.2164,1.2191,1.2192,1.2242,1.227,1.2325,1.2343,1.2331,1.2427,1.2457,1.253,1.2548,1.2569,1.2583,1.2565,1.2644,1.2651,1.2658,1.2682,1.2692,1.2579,1.2579,1.2578,1.2578,0,1.2127,1.2174,1.2209,1.226,1.2291,1.2341,1.2362,1.2393,1.2398,1.2417,1.2479,1.2514,1.2564,1.2583,1.2589,1.2657,1.2649,1.264,1.2617,1.2669,1.2691,1.2701,1.2581,1.258,1.258,1.258,0,0,1.2202,1.2259,1.2272,1.2294,1.2341,1.2377,1.2427,1.2474,1.2499,1.2537,1.2579,1.2644,1.2636,1.2664,1.2675,1.2707,1.2762,1.2694,1.2695,1.2704,1.2837,1.2842,1.2853,1.2761,1.2763,1.2765,1.2833,0,1.2269,1.2355,1.2369,1.2445,1.2487,1.2489,1.2532,1.2565,1.2583,1.2623,1.2644,1.2689,1.2675,1.2692,1.2725,1.2748,1.2789,1.2744,1.28,1.2802,1.2787,1.2865,1.2871,1.2934,1.2842,1.2844,1.2845,0,1.236,1.2398,1.2478,1.2517,1.2535,1.2573,1.2617,1.2655,1.2693,1.2704,1.2735,1.2741,1.2793,1.2768,1.2838,1.2807,1.2831,1.2847,1.2849,1.2854,1.2825,1.287,1.2954,1.2963,1.286,1.2858,1.2857,0,1.2404,1.2476,1.2532,1.2552,1.26,1.2626,1.2648,1.2683,1.2711,1.275,1.2768,1.2813,1.2838,1.2873,1.289,1.2871,1.2959,1.2936,1.297,1.2969,1.2987,1.2985,1.3074,1.3005,1.3005,1.3005,1.3005,0,1.2477,1.2525,1.2552,1.2587,1.2641,1.2657,1.271,1.2731,1.2762,1.2801,1.2806,1.2843,1.2865,1.2905,1.2919,1.2975,1.2986,1.2996,1.2999,1.2995,1.2993,1.301,1.3005,1.3007,1.3007,1.3006,1.3006,0,1.2534,1.2555,1.2616,1.2656,1.2667,1.2705,1.2739,1.2773,1.2791,1.284,1.2853,1.2882,1.2929,1.295,1.3009,1.3018,1.3081,1.3082,1.3067,1.3068,1.3099,1.3096,1.3201,1.3215,1.3138,1.3138,1.3139,0,1.2579,1.2616,1.2659,1.2685,1.2707,1.2748,1.2776,1.2793,1.2822,1.2867,1.2895,1.2942,1.298,1.3055,1.3081,1.3126,1.3127,1.3161,1.3134,1.3127,1.3125,1.3122,1.3125,1.3165,1.3166,1.3167,1.3167,0,1.2655,1.2663,1.2702,1.2745,1.2777,1.2812,1.2846,1.2867,1.2889,1.2921,1.2968,1.2998,1.3057,1.3103,1.3149,1.3171,1.3173,1.3175,1.3185,1.318,1.317,1.3174,1.3079,1.3173,1.3172,1.3172,1.3171,1.3171,1.2707,1.2739,1.2774,1.2817,1.2844,1.2875,1.2908,1.293,1.297,1.3018,1.3026,1.3076,1.3112,1.3174,1.3198,1.3238,1.323,1.3244,1.3248,1.325,1.3251,1.3164,1.3246,1.3246,1.3246,1.3246,1.3246,0,1.2781,1.2804,1.2844,1.289,1.2924,1.2922,1.2959,1.2987,1.3031,1.3064,1.3101,1.3155,1.3199,1.3229,1.3274,1.33,1.3302,1.3311,1.3309,1.3313,1.3257,1.3243,1.3309,1.3309,1.3309,1.3309,1.3309,1.3309,1.2824,1.2878,1.289,1.2957,1.298,1.3028,1.3049,1.3078,1.3104,1.3163,1.32,1.3219,1.325,1.3298,1.3338,1.3346,1.3362,1.3371,1.3378,1.3324,1.3318,1.3311,1.3298,1.3375,1.3375,1.3431,1.3432,1.3432]},{"header":{"parameterUnit":"m.s-1","parameterCategory":1,"la1":30.2991,"la2":30.254,"lo1":-89.0895,"lo2":-89.0444,"dy":0.0017,"dx":0.0017,"nx":28,"ny":28,"refTime":"2024-08-12T03:00:00:Z","depth":0,"parameterNumber":3,"parameterNumberName":"V-component_of_WINDS"},"data":[0,0,0,0,0,0,0,0,0,0,0,0,0,0,0,0,0,0,0,0,0,0,0,0,0,0,0,0,0,0,0,0,0,0,0,0,0,0,0,0,0,0,0,0,0,0,0,0,0,0,0,0,0,0,0,0,0,0,2.6733,2.6733,0,2.6673,2.6672,2.6672,2.6595,2.6594,2.6593,2.6592,2.6528,2.6528,2.6527,0,0,0,0,0,0,0,0,0,0,0,0,0,2.6776,2.6776,2.6733,2.6732,2.6732,2.6673,2.6672,2.6672,2.6595,2.6594,2.6592,2.6591,2.6528,2.6528,2.6527,0,0,0,0,0,0,0,0,0,0,0,0,0,2.6741,2.6776,2.6733,2.6687,2.6682,2.6673,2.6672,2.6671,2.6596,2.6594,2.6592,2.659,2.6529,2.6528,2.6527,2.6559,0,0,2.6525,2.6524,0,0,0,0,0,0,0,0,2.6743,2.6739,2.6694,2.669,2.6685,2.664,2.6664,2.6634,2.6596,2.6628,2.6592,2.6589,2.6567,2.6563,2.6555,2.6556,2.6553,2.6524,2.6524,2.6524,2.6523,0,0,0,0,0,0,0,2.6746,2.6742,2.6709,2.6694,2.6688,2.6667,2.666,2.6658,2.6609,2.6626,2.662,2.6614,2.6564,2.6556,2.6553,2.6552,2.6524,2.6524,2.6523,2.6523,2.6568,2.657,0,0,0,0,0,0,2.6756,2.6744,2.6711,2.6708,2.671,2.6668,2.666,2.6656,2.6608,2.6599,2.6615,2.6611,2.6559,2.6554,2.6551,2.658,2.6524,2.6523,2.6522,2.6566,2.6568,2.657,0,0,0,0,0,0,2.6757,2.6753,2.6714,2.6724,2.6718,2.6669,2.6665,2.6656,2.6648,2.6601,2.6591,2.6617,2.6557,2.6552,2.6556,2.6577,2.6522,2.6522,2.6564,2.6567,2.6569,2.6641,0,0,0,0,0,0,2.6758,2.6754,2.6768,2.6725,2.6717,2.6722,2.6667,2.6656,2.6647,2.664,2.66,2.6592,2.6555,2.6557,2.6555,2.6575,2.6521,2.6562,2.6565,2.6568,2.6637,2.6646,2.6654,0,0,0,0,0,2.676,2.6792,2.6769,2.6765,2.6733,2.6723,2.6719,2.6677,2.665,2.6661,2.6629,2.6593,2.6575,2.6559,2.6555,2.6575,2.6561,2.6565,2.6568,2.6633,2.6644,2.6654,0,0,0,0,0,0,2.6839,2.6785,2.676,2.6778,2.6756,2.6711,2.6724,2.6691,2.6675,2.6669,2.6617,2.6608,2.6617,2.6597,2.6579,2.6599,2.6562,2.6565,2.6612,2.6623,2.6631,2.6635,2.652,0,0,0,0,0,2.6858,2.6856,2.6809,2.683,2.682,2.6774,2.6768,2.6737,2.6712,2.6702,2.6671,2.6646,2.6634,2.6628,2.6615,2.6634,2.6621,2.6645,2.6654,2.6661,2.6663,2.6666,2.6674,2.6583,2.6583,2.6582,0,0,2.6898,2.6869,2.6871,2.6845,2.6824,2.6819,2.6767,2.6766,2.6762,2.6701,2.6702,2.6678,2.6647,2.6657,2.666,2.664,2.6686,2.6666,2.6672,2.667,2.6671,2.6679,2.6687,2.6585,2.6585,2.6584,0,0,2.6968,2.6948,2.696,2.6939,2.6908,2.6876,2.6879,2.6838,2.6819,2.6819,2.6771,2.6765,2.6747,2.6725,2.6711,2.6767,2.6731,2.6765,2.6808,2.6811,2.6819,2.6825,2.684,2.6847,2.6768,2.6768,2.6768,0,2.7022,2.7016,2.6971,2.6972,2.6959,2.6904,2.6913,2.6895,2.6861,2.6852,2.683,2.6803,2.6779,2.6779,2.6792,2.6785,2.6783,2.6768,2.6821,2.6827,2.6832,2.6846,2.6852,2.6772,2.6772,2.6771,2.6771,0,2.7081,2.7077,2.709,2.7057,2.7046,2.7052,2.7005,2.6999,2.6968,2.6938,2.6935,2.6903,2.6879,2.6878,2.6849,2.6873,2.6861,2.6832,2.6792,2.6845,2.6857,2.6863,2.6778,2.6776,2.6775,2.6774,0,0,2.72,2.7139,2.7144,2.7125,2.7084,2.7079,2.708,2.7057,2.705,2.7028,2.7024,2.7008,2.6978,2.6963,2.693,2.6933,2.6973,2.6902,2.69,2.6913,2.6991,2.7012,2.7019,2.6949,2.695,2.6951,2.6993,0,2.726,2.7259,2.7216,2.7226,2.7218,2.7163,2.7163,2.7135,2.7106,2.7094,2.7061,2.7048,2.7013,2.7002,2.7003,2.6968,2.6987,2.6965,2.6942,2.6942,2.6949,2.7026,2.7049,2.709,2.6998,2.6998,2.6999,0,2.733,2.7309,2.7318,2.7271,2.7266,2.7267,2.7239,2.7229,2.7196,2.7174,2.7154,2.7116,2.7109,2.7074,2.7062,2.7047,2.7035,2.7016,2.7016,2.7011,2.6972,2.7019,2.7103,2.7108,2.7007,2.7006,2.7006,0,2.741,2.7385,2.7385,2.7372,2.7318,2.7319,2.7297,2.7261,2.7248,2.7223,2.7213,2.7189,2.7174,2.7155,2.7109,2.7088,2.71,2.7063,2.7079,2.708,2.7082,2.7082,2.7162,2.708,2.708,2.708,2.708,0,2.748,2.7486,2.7419,2.742,2.7423,2.7373,2.7377,2.7349,2.7317,2.7308,2.7259,2.7252,2.7193,2.7178,2.7142,2.7135,2.713,2.7109,2.7099,2.7112,2.7114,2.7101,2.7096,2.7082,2.7081,2.7081,2.7081,0,2.757,2.7526,2.7522,2.7471,2.7458,2.7462,2.7417,2.7413,2.7379,2.7368,2.7363,2.731,2.7288,2.7241,2.7208,2.7183,2.7183,2.7168,2.7195,2.7188,2.7205,2.7203,2.7277,2.7283,2.7201,2.7202,2.7202,0,2.7616,2.7619,2.7567,2.7557,2.7536,2.7522,2.7508,2.7456,2.7443,2.7402,2.7401,2.7376,2.7353,2.7321,2.7278,2.7251,2.7231,2.7259,2.7227,2.7238,2.7227,2.7226,2.7224,2.7266,2.7267,2.7268,2.7269,0,2.77,2.7677,2.7658,2.7631,2.7615,2.7591,2.7564,2.7559,2.75,2.7487,2.7464,2.7446,2.741,2.7384,2.7349,2.7323,2.7285,2.7279,2.7281,2.7293,2.7307,2.7295,2.7211,2.7278,2.7277,2.7276,2.7276,2.7275,2.7766,2.7764,2.7726,2.7705,2.7679,2.7654,2.7646,2.7611,2.7591,2.7558,2.7528,2.7507,2.7468,2.7417,2.7393,2.7373,2.7355,2.7359,2.7359,2.736,2.7363,2.7312,2.7367,2.7367,2.7367,2.7366,2.7366,0,2.7844,2.7816,2.7797,2.776,2.7743,2.7709,2.7676,2.7663,2.7645,2.7612,2.759,2.7561,2.7534,2.7488,2.7456,2.7449,2.743,2.7442,2.7441,2.7434,2.7384,2.7384,2.7457,2.7457,2.7457,2.7457,2.7457,2.7457,2.7882,2.7875,2.7847,2.7825,2.7796,2.7775,2.7759,2.7734,2.7706,2.7677,2.7654,2.7624,2.7584,2.7548,2.752,2.7507,2.7496,2.7513,2.7494,2.7447,2.7438,2.743,2.743,2.7512,2.7512,2.7545,2.7545,2.7546]}]]